Total_Precipitation_Accumulation
0.52 0.57 0.61 0.59 0.61 0.65 0.73 0.87 1.00 0.89 0.68 0.54 0.51 0.49 0.50 0.49 0.50 0.47 0.41 0.45 0.44 0.43 0.44 0.45 0.46 0.48 0.50 0.54 0.62 0.71 0.79 0.85 0.90 0.95 1.03 1.12 1.22 1.33
0.37 0.42 0.46 0.48 0.52 0.57 0.63 0.71 0.85 0.95 0.81 0.57 0.49 0.47 0.48 0.45 0.45 0.41 0.37 0.41 0.40 0.39 0.40 0.41 0.40 0.40 0.41 0.44 0.49 0.54 0.59 0.65 0.72 0.82 0.92 1.02 1.12 1.24
0.26 0.31 0.36 0.40 0.44 0.47 0.51 0.56 0.63 0.74 0.74 0.55 0.46 0.43 0.42 0.38 0.35 0.34 0.30 0.29 0.28 0.32 0.35 0.37 0.39 0.40 0.40 0.41 0.43 0.45 0.48 0.53 0.61 0.71 0.82 0.92 1.00 1.04
0.18 0.22 0.27 0.30 0.36 0.41 0.46 0.47 0.49 0.52 0.60 0.54 0.40 0.35 0.32 0.28 0.26 0.25 0.24 0.24 0.22 0.25 0.30 0.35 0.40 0.42 0.40 0.39 0.39 0.40 0.42 0.45 0.50 0.54 0.61 0.69 0.79 0.89
0.18 0.23 0.28 0.33 0.38 0.41 0.43 0.44 0.44 0.47 0.54 0.56 0.40 0.32 0.28 0.24 0.24 0.20 0.21 0.21 0.20 0.21 0.25 0.27 0.30 0.33 0.36 0.38 0.38 0.38 0.38 0.40 0.42 0.46 0.49 0.54 0.61 0.71
0.23 0.28 0.31 0.33 0.34 0.33 0.34 0.36 0.40 0.41 0.42 0.46 0.42 0.33 0.28 0.22 0.22 0.20 0.20 0.19 0.20 0.21 0.24 0.26 0.28 0.30 0.30 0.31 0.31 0.31 0.31 0.35 0.42 0.51 0.58 0.62 0.64 0.66
0.31 0.31 0.30 0.28 0.26 0.25 0.27 0.28 0.31 0.35 0.41 0.49 0.46 0.36 0.28 0.24 0.21 0.22 0.27 0.26 0.24 0.22 0.24 0.24 0.27 0.32 0.35 0.38 0.40 0.39 0.40 0.45 0.55 0.66 0.73 0.78 0.79 0.79
0.30 0.26 0.24 0.22 0.19 0.19 0.20 0.22 0.28 0.37 0.45 0.52 0.50 0.42 0.30 0.29 0.33 0.40 0.46 0.52 0.45 0.28 0.33 0.39 0.44 0.51 0.52 0.53 0.59 0.60 0.60 0.63 0.67 0.72 0.76 0.79 0.80 0.84
0.22 0.19 0.17 0.15 0.14 0.12 0.11 0.15 0.19 0.27 0.36 0.40 0.36 0.26 0.24 0.24 0.38 0.50 0.54 0.60 0.52 0.38 0.45 0.52 0.49 0.51 0.51 0.54 0.62 0.62 0.58 0.57 0.59 0.63 0.67 0.69 0.69 0.73
0.09 0.08 0.07 0.06 0.06 0.10 0.16 0.20 0.14 0.11 0.12 0.14 0.14 0.15 0.19 0.25 0.41 0.59 0.66 0.68 0.53 0.42 0.41 0.48 0.41 0.39 0.38 0.40 0.47 0.49 0.46 0.47 0.50 0.54 0.57 0.58 0.58 0.60
0.04 0.04 0.05 0.04 0.06 0.18 0.26 0.26 0.14 0.05 0.04 0.08 0.13 0.14 0.17 0.20 0.28 0.49 0.68 0.78 0.64 0.37 0.31 0.38 0.38 0.38 0.36 0.33 0.36 0.42 0.42 0.43 0.44 0.45 0.47 0.49 0.52 0.56
0.04 0.03 0.03 0.05 0.12 0.25 0.26 0.24 0.13 0.05 0.08 0.07 0.06 0.05 0.04 0.06 0.16 0.36 0.75 1.13 0.92 0.58 0.32 0.42 0.47 0.53 0.63 0.36 0.31 0.35 0.35 0.34 0.34 0.35 0.36 0.39 0.43 0.47
0.06 0.03 0.02 0.09 0.19 0.23 0.19 0.09 0.10 0.18 0.15 0.06 0.05 0.04 0.04 0.04 0.08 0.16 0.42 1.04 1.34 0.96 0.48 0.76 0.90 0.64 0.73 0.48 0.31 0.32 0.34 0.39 0.42 0.39 0.38 0.39 0.41 0.48
0.08 0.05 0.06 0.14 0.16 0.11 0.06 0.06 0.13 0.13 0.05 0.05 0.06 0.06 0.08 0.11 0.15 0.21 0.27 0.44 0.78 0.99 0.72 0.93 1.26 0.88 0.91 0.67 0.38 0.34 0.38 0.52 0.67 0.64 0.57 0.55 0.48 0.48
0.09 0.12 0.14 0.11 0.06 0.02 0.03 0.05 0.06 0.05 0.09 0.16 0.15 0.13 0.15 0.22 0.29 0.32 0.32 0.35 0.41 0.49 0.54 0.63 0.93 0.94 1.01 0.90 0.60 0.45 0.53 0.59 0.77 0.95 0.90 0.74 0.56 0.48
0.12 0.12 0.07 0.03 0.02 0.02 0.02 0.02 0.03 0.07 0.19 0.26 0.23 0.17 0.18 0.25 0.31 0.41 0.52 0.54 0.59 0.54 0.50 0.49 0.60 0.84 0.88 0.64 0.70 0.65 0.68 0.91 0.99 1.17 1.14 0.87 0.65 0.52
0.14 0.05 0.01 0.01 0.02 0.02 0.01 0.01 0.03 0.06 0.13 0.18 0.24 0.26 0.25 0.33 0.43 0.55 0.71 0.78 0.81 0.70 0.57 0.43 0.37 0.43 0.55 0.60 0.61 0.54 0.66 0.91 1.11 1.22 1.19 1.01 0.80 0.64
0.07 0.02 0.02 0.03 0.04 0.04 0.04 0.05 0.04 0.08 0.17 0.28 0.31 0.35 0.42 0.50 0.59 0.66 0.79 0.89 0.83 0.66 0.54 0.42 0.35 0.32 0.28 0.28 0.43 0.64 0.75 0.94 1.09 1.09 0.94 0.91 0.89 0.72
0.03 0.04 0.05 0.05 0.05 0.06 0.09 0.12 0.14 0.14 0.27 0.42 0.49 0.53 0.59 0.64 0.71 0.77 0.80 0.77 0.65 0.51 0.42 0.35 0.40 0.61 0.59 0.35 0.27 0.55 0.96 1.05 0.95 0.89 0.76 0.73 0.84 0.73
0.04 0.06 0.06 0.06 0.07 0.10 0.14 0.21 0.25 0.26 0.35 0.48 0.57 0.62 0.69 0.77 0.81 0.79 0.73 0.67 0.58 0.42 0.27 0.18 0.26 0.60 0.97 0.87 0.67 0.61 0.74 0.95 0.97 0.88 0.67 0.58 0.65 0.62
0.05 0.05 0.05 0.07 0.11 0.14 0.18 0.26 0.35 0.45 0.53 0.65 0.68 0.71 0.76 0.88 0.85 0.71 0.58 0.44 0.37 0.30 0.22 0.14 0.17 0.33 0.58 0.68 0.61 0.54 0.65 0.75 0.86 1.03 0.91 0.75 0.60 0.50
0.05 0.05 0.05 0.07 0.13 0.18 0.24 0.31 0.42 0.48 0.57 0.66 0.71 0.72 0.76 0.82 0.76 0.55 0.38 0.30 0.24 0.22 0.20 0.12 0.09 0.13 0.29 0.54 0.53 0.45 0.49 0.49 0.44 0.41 0.60 0.88 1.19 1.25
0.07 0.08 0.08 0.10 0.15 0.22 0.29 0.35 0.45 0.53 0.61 0.72 0.74 0.69 0.66 0.57 0.41 0.32 0.26 0.25 0.25 0.21 0.17 0.13 0.09 0.10 0.20 0.31 0.41 0.40 0.37 0.33 0.27 0.30 0.49 0.55 0.71 0.93